CAPE
303 65 58 69 51 56 129 97 86 32 47 69 81 61 83 83 109 125 78 40 0 0 23 24 16 17 20 15 6 0 0 0 0 0 156 239 139 268 288 405 356 992 631 496
45 71 94 95 79 77 97 88 47 79 82 122 32 106 95 104 108 93 75 65 52 29 56 16 0 0 4 15 36 5 0 0 0 0 199 200 198 184 199 270 187 222 469 489
13 24 136 82 141 114 34 80 38 27 60 142 48 14 52 99 133 111 82 89 68 55 68 70 61 13 29 18 6 7 0 0 8 30 123 88 185 261 549 730 719 587 645 373
12 133 173 88 155 54 14 85 119 87 59 15 66 37 30 52 155 169 235 305 117 111 72 79 88 104 109 54 43 6 0 0 28 151 111 71 126 279 426 668 743 772 984 767
234 107 96 103 174 113 119 158 50 115 86 51 53 80 87 23 36 92 192 344 348 252 179 163 143 133 115 114 125 86 16 15 60 93 145 78 92 190 283 504 870 829 763 741
459 427 390 330 386 241 308 243 57 17 22 16 22 90 130 13 8 7 45 169 295 228 280 314 209 194 206 144 116 96 42 21 87 132 58 91 131 166 291 477 598 358 267 221
358 358 426 558 414 328 339 290 48 30 82 50 45 112 129 31 19 28 88 205 332 379 507 409 312 338 302 234 56 51 55 54 66 43 51 85 181 296 393 309 201 194 188 211
434 215 516 306 476 279 447 424 48 41 22 15 118 81 40 93 103 102 181 222 350 352 314 339 316 309 351 332 270 142 121 105 91 60 124 180 230 246 144 93 124 111 182 189
463 385 179 197 228 180 30 176 19 39 14 3 0 53 49 168 177 241 280 264 327 444 326 306 337 353 444 457 516 363 190 206 181 106 178 168 218 200 46 28 89 219 240 121
527 515 408 107 39 48 36 15 2 0 0 0 2 0 4 176 294 317 402 437 393 480 463 740 546 384 364 608 551 442 294 292 307 293 247 255 387 233 10 41 64 194 260 103
388 435 154 17 0 0 0 0 0 0 0 0 0 0 62 333 364 433 487 964 661 621 642 815 854 750 856 869 676 717 724 521 456 494 255 181 63 170 68 135 209 182 119 87
0 3 0 0 0 0 0 0 0 0 0 0 0 0 110 325 377 498 559 1081 1223 1482 1153 1300 1239 1115 1161 1160 1131 938 917 794 632 345 286 31 68 355 306 201 101 98 101 2
0 0 0 0 0 0 0 0 0 0 0 0 0 0 0 380 468 643 880 1064 1241 1266 1369 1176 1176 1200 1353 1252 1317 1243 1118 985 728 642 511 215 252 270 101 102 34 0 0 0
0 0 0 0 0 0 0 0 0 0 0 0 0 0 0 91 439 656 912 1151 1230 1617 1664 1515 1390 1288 1557 1501 1319 1248 1040 1054 833 743 465 453 204 134 18 0 0 0 0 0
0 0 0 0 0 0 0 0 0 0 0 0 0 0 0 0 362 583 834 981 1307 1430 1195 1077 947 1208 1387 1272 1138 1050 754 618 386 255 154 107 46 1 0 0 4 0 0 0
0 0 0 0 0 0 0 0 0 0 0 0 0 0 83 331 386 608 787 937 1104 1076 1010 979 1061 1187 1163 1152 1042 681 255 148 36 21 7 20 21 2 2 0 0 0 0 0
0 0 0 0 0 0 0 0 0 0 0 35 34 10 457 554 579 571 664 1121 1090 1171 976 1194 862 1308 934 902 540 393 116 60 1 0 0 0 0 0 0 0 0 0 0 0
0 0 0 0 0 0 0 0 0 0 55 207 222 225 575 959 1036 786 745 1010 1176 876 793 893 813 787 980 639 332 314 98 20 11 6 0 0 0 0 0 0 0 0 0 0
0 0 0 0 0 0 0 1 0 0 0 209 345 732 1161 1370 1302 1064 825 777 817 972 1064 1061 883 648 685 489 226 345 60 9 2 0 0 0 0 0 0 0 0 0 0 0
0 0 0 0 0 0 0 0 0 0 0 5 508 838 1173 1029 674 133 0 108 947 959 876 825 716 653 788 321 126 91 69 39 1 0 0 0 0 0 0 0 0 0 0 0
0 0 0 0 0 0 0 0 0 0 0 25 352 644 863 563 549 119 2 12 686 1175 1194 892 777 712 800 247 85 58 23 2 0 0 0 0 0 0 0 2 2 3 2 1
0 0 0 0 0 0 0 0 0 0 19 68 230 553 609 310 50 44 74 59 768 1155 1292 899 830 809 805 208 64 39 21 5 0 0 0 0 0 0 4 8 3 0 0 0
0 0 0 0 0 0 7 11 17 25 22 103 303 359 251 90 68 67 81 67 739 1017 1024 971 865 886 707 229 37 16 22 7 4 0 0 0 0 1 6 2 0 0 0 0
0 0 0 0 0 0 3 17 26 51 77 100 305 201 73 7 18 150 132 70 174 750 926 891 795 821 550 317 166 62 22 0 0 0 0 0 0 0 0 0 0 1 1 0
0 0 0 0 0 8 0 11 65 142 183 206 558 403 150 225 257 367 316 210 85 64 733 838 646 533 516 413 343 299 223 0 0 0 0 0 0 0 0 0 3 7 9 4
0 0 0 0 14 4 15 33 96 192 254 265 653 294 79 215 642 621 538 426 204 385 700 699 647 495 438 485 501 329 90 0 0 0 0 0 2 4 0 2 6 10 0 4
CIN
-51 -58 -84 -25 -17 -94 -110 -92 -81 -74 -79 -75 -73 -56 -50 -47 -119 -95 -78 -34 -0 -0 -69 -55 -43 -124 -28 -2 -4 -0 -0 -0 -0 -0 -100 -37 -33 -48 -48 -51 -37 -48 -15 -25
-46 -40 -70 -141 -84 -76 -96 -81 -58 -89 -117 -73 -74 -95 -83 -99 -67 -115 -92 -59 -35 -27 -11 -18 -0 -0 -48 -2 -4 -3 -0 -0 -0 -0 -109 -57 -50 -29 -44 -91 -29 -21 -32 -144
-63 -19 -81 -124 -111 -114 -109 -146 -93 -55 -143 -173 -246 -116 -287 -235 -122 -87 -135 -135 -78 -57 -39 -39 -18 -8 -39 -48 -14 -3 -0 -0 -300 -185 -90 -82 -23 -164 -132 -85 -85 -181 -206 -237
-8 -73 -149 -130 -134 -157 -38 -54 -143 -74 -98 -54 -264 -76 -80 -320 -255 -358 -337 -272 -206 -41 -49 -47 -33 -12 -15 -29 -24 -3 -0 -0 -52 -118 -84 -134 -200 -133 -98 -74 -73 -102 -131 -108
-35 -64 -27 -18 -127 -83 -24 -58 -163 -98 -69 -135 -218 -111 -63 -338 -300 -287 -188 -314 -207 -135 -29 -40 -41 -40 -13 -14 -6 -14 -28 -25 -12 -47 -100 -114 -186 -112 -63 -80 -80 -72 -73 -75
-43 -61 -50 -38 -43 -85 -60 -63 -68 -117 -91 -123 -95 -97 -118 -108 -199 -142 -217 -128 -292 -169 -76 -60 -51 -39 -22 -19 -19 -16 -18 -29 -0 -1 -42 -130 -118 -150 -118 -110 -73 -82 -47 -62
-165 -99 -69 -87 -68 -89 -133 -65 -33 -51 -82 -76 -145 -141 -121 -90 -223 -399 -359 -442 -359 -262 -205 -209 -41 -59 -46 -40 -51 -63 -48 -13 -1 -7 -97 -197 -167 -107 -61 -69 -98 -67 -26 -40
-46 -34 -125 -89 -90 -28 -111 -72 -46 -23 -24 -49 -197 -167 -119 -357 -256 -363 -451 -431 -332 -295 -219 -240 -113 -324 -167 -90 -40 -50 -48 -95 -39 -31 -182 -144 -92 -75 -26 -10 -16 -7 -1 -4
-30 -28 -46 -19 -59 -33 -91 -72 -86 -74 -49 -36 -0 -168 -203 -425 -307 -495 -402 -251 -371 -415 -160 -145 -118 -160 -127 -109 -57 -46 -53 -209 -67 -198 -157 -54 -78 -34 -1 -15 -13 -8 -1 -24
-46 -37 -34 -22 -128 -45 -62 -72 -18 -0 -0 -0 -3 -0 -78 -160 -151 -253 -463 -397 -290 -391 -177 -329 -383 -404 -386 -305 -110 -36 -150 -257 -230 -162 -92 -20 -6 -6 -25 -37 -43 -16 -8 -30
-83 -54 -41 -11 -0 -0 -0 -0 -0 -0 -0 -0 -0 -0 -63 -147 -297 -197 -395 -362 -473 -494 -371 -379 -326 -273 -241 -286 -256 -166 -79 -57 -214 -123 -13 -18 -69 -26 -63 -22 -37 -29 -38 -36
-2 -2 -1 -0 -0 -0 -0 -0 -0 -0 -0 -0 -0 -0 -393 -191 -139 -166 -173 -321 -301 -258 -323 -248 -186 -169 -318 -202 -215 -181 -128 -78 -94 -92 -115 -46 -36 -1 -20 -50 -96 -77 -97 -7
-0 -0 -0 -0 -0 -0 -0 -0 -0 -0 -0 -0 -0 -0 -0 -550 -210 -165 -475 -387 -312 -301 -269 -307 -309 -294 -244 -230 -165 -151 -115 -80 -67 -134 -100 -98 -47 -15 -88 -91 -156 -0 -0 -0
-0 -0 -0 -0 -0 -0 -0 -0 -0 -0 -0 -0 -0 -0 -0 -539 -499 -438 -397 -331 -308 -233 -203 -217 -232 -248 -193 -175 -161 -126 -115 -87 -89 -84 -84 -64 -85 -100 -67 -0 -0 -0 -0 -0
-0 -0 -0 -0 -0 -0 -0 -0 -0 -0 -0 -0 -0 -0 -0 -0 -540 -320 -120 -365 -284 -209 -239 -268 -272 -193 -142 -141 -126 -120 -111 -106 -119 -134 -182 -178 -158 -158 -0 -0 -0 -0 -0 -0
-0 -0 -0 -0 -0 -0 -0 -0 -0 -0 -0 -0 -0 -2 -167 -265 -344 -459 -456 -353 -279 -280 -303 -277 -214 -142 -115 -99 -118 -67 -120 -57 -190 -213 -190 -227 -204 -186 -0 -0 -0 -0 -0 -0
-0 -0 -0 -0 -0 -0 -0 -0 -0 -0 -0 -32 -54 -8 -389 -403 -205 -145 -310 -203 -204 -107 -219 -162 -209 -91 -109 -87 -146 -163 -82 -174 -21 -0 -0 -0 -0 -0 -0 -0 -0 -0 -0 -0
-0 -0 -0 -0 -0 -0 -0 -0 -0 -0 -85 -160 -150 -148 -291 -139 -131 -41 -153 -123 -107 -150 -161 -121 -107 -98 -55 -92 -164 -143 -203 -302 -284 -96 -0 -0 -0 -0 -0 -0 -0 -0 -0 -0
-0 -0 -0 -0 -0 -0 -0 -3 -0 -5 -0 -190 -158 -197 -136 -113 -112 -110 -123 -174 -154 -95 -60 -53 -51 -70 -79 -73 -147 -105 -206 -255 -208 -0 -0 -0 -0 -0 -0 -0 -0 -0 -0 -0
-0 -0 -0 -0 -0 -0 -0 -0 -0 -9 -0 -58 -139 -124 -93 -95 -94 -73 -0 -106 -94 -50 -76 -75 -73 -54 -31 -81 -131 -134 -147 -171 -41 -0 -0 -0 -0 -0 -0 -0 -0 -0 -0 -0
-0 -0 -0 -0 -0 -0 -0 -0 -0 -0 -0 -108 -180 -98 -69 -110 -107 -75 -29 -154 -183 -34 -34 -63 -66 -64 -11 -95 -159 -149 -194 -101 -0 -0 -0 -0 -0 -0 -0 -1 -1 -1 -1 -2
-0 -0 -0 -0 -0 -0 -0 -0 -0 -0 -101 -143 -58 -117 -67 -91 -74 -73 -83 -126 -141 -49 -39 -44 -45 -27 -14 -98 -196 -204 -202 -150 -0 -0 -0 -0 -0 -0 -3 -2 -1 -0 -0 -0
-0 -0 -0 -0 -0 -0 -2 -4 -4 -104 -56 -250 -131 -86 -49 -87 -256 -70 -33 -110 -105 -45 -70 -67 -60 -30 -37 -83 -169 -171 -166 -132 -99 -0 -0 -0 -0 -0 -2 -1 -0 -0 -0 -0
-0 -0 -0 -0 -0 -0 -2 -49 -30 -22 -29 -67 -116 -62 -34 -21 -303 -26 -50 -37 -111 -83 -71 -70 -55 -48 -49 -67 -72 -80 -85 -0 -0 -0 -0 -0 -0 -0 -0 -0 -0 -1 -1 -0
-0 -0 -0 -0 -0 -1 -0 -25 -40 -150 -106 -106 -25 -71 -142 -17 -29 -21 -19 -45 -30 -37 -84 -79 -78 -58 -57 -57 -62 -41 -36 -0 -0 -0 -0 -0 -0 -0 -0 -0 -1 -3 -13 -12
-0 -0 -0 -0 -2 -4 -8 -15 -58 -320 -207 -40 -45 -59 -115 -270 -9 -25 -31 -37 -20 -17 -47 -64 -53 -45 -28 -19 -28 -39 -55 -0 -0 -0 -0 -0 -6 -3 -0 -3 -4 -8 -0 -23
Wind_Speed
5 nan nan nan nan nan 3 nan nan nan nan nan nan nan nan nan 14 17 nan nan nan nan nan nan nan nan nan nan nan nan nan nan nan nan 6 6 5 9 8 6 6 6 4 2
nan nan nan nan nan nan nan nan nan nan nan 12 nan 13 nan 11 20 nan nan nan nan nan nan nan nan nan nan nan nan nan nan nan nan nan 7 11 13 12 12 12 11 10 10 8
nan nan 4 nan 7 3 nan nan nan nan nan 5 nan nan nan nan 11 12 nan nan nan nan nan nan nan nan nan nan nan nan nan nan nan nan 9 nan 16 17 15 13 13 15 14 16
nan 4 8 nan 11 nan nan nan 4 nan nan nan nan nan nan nan 9 11 16 9 8 14 nan nan nan 13 13 nan nan nan nan nan nan 5 6 nan 13 12 11 14 17 18 20 15
7 6 nan 11 14 17 8 12 nan 13 nan nan nan nan nan nan nan nan 18 20 18 15 10 11 13 14 18 15 10 nan nan nan nan nan 10 nan nan 17 18 19 21 22 24 23
3 6 7 16 11 17 19 19 nan nan nan nan nan nan 3 nan nan nan nan 23 25 21 13 14 20 24 21 20 17 nan nan nan nan 10 nan nan 17 23 24 25 27 30 25 25
5 5 5 13 13 14 18 20 nan nan nan nan nan 21 16 nan nan nan nan 20 23 19 11 16 27 21 21 18 nan nan nan nan nan nan nan nan 30 33 33 34 34 23 22 27
4 5 12 13 13 17 18 24 nan nan nan nan 20 nan nan nan 10 14 22 19 15 13 20 17 22 33 24 20 12 18 19 23 nan nan 33 36 33 32 34 nan 35 28 35 18
9 5 12 16 19 23 nan 26 nan nan nan nan nan nan nan 11 10 13 14 14 20 16 13 12 8 16 32 8 22 24 28 35 29 34 34 36 34 39 nan nan nan 25 22 15
16 8 13 19 nan nan nan nan nan nan nan nan nan nan nan 15 11 15 15 16 21 22 17 18 12 7 7 10 20 28 29 33 39 40 39 39 39 36 nan nan nan 22 27 24
24 23 16 nan nan nan nan nan nan nan nan nan nan nan nan 18 15 22 22 25 21 25 25 23 23 18 16 19 26 28 31 37 42 48 46 47 nan 47 nan 26 25 27 26 nan
nan nan nan nan nan nan nan nan nan nan nan nan nan nan 32 23 16 27 27 30 31 27 29 23 19 20 21 25 23 28 33 33 31 36 44 nan nan 43 40 37 32 nan 26 nan
nan nan nan nan nan nan nan nan nan nan nan nan nan nan nan 38 28 26 29 29 30 29 23 25 26 23 24 31 35 38 38 37 37 37 40 42 39 42 42 38 nan nan nan nan
nan nan nan nan nan nan nan nan nan nan nan nan nan nan nan nan 35 32 27 28 30 26 29 31 32 36 41 42 43 46 43 41 39 40 38 44 46 44 nan nan nan nan nan nan
nan nan nan nan nan nan nan nan nan nan nan nan nan nan nan nan 33 30 34 31 29 26 32 38 42 41 37 40 43 46 44 41 45 40 43 42 nan nan nan nan nan nan nan nan
nan nan nan nan nan nan nan nan nan nan nan nan nan nan nan 23 35 31 31 31 30 29 32 36 43 47 43 38 46 48 46 42 nan nan nan nan nan nan nan nan nan nan nan nan
nan nan nan nan nan nan nan nan nan nan nan nan nan nan 27 18 20 23 24 25 26 27 35 37 40 41 40 36 34 44 47 nan nan nan nan nan nan nan nan nan nan nan nan nan
nan nan nan nan nan nan nan nan nan nan nan 27 26 27 27 19 19 21 19 21 25 27 29 32 35 38 39 40 40 38 nan nan nan nan nan nan nan nan nan nan nan nan nan nan
nan nan nan nan nan nan nan nan nan nan nan 31 24 29 26 27 21 26 28 25 35 26 27 32 36 37 47 35 36 35 nan nan nan nan nan nan nan nan nan nan nan nan nan nan
nan nan nan nan nan nan nan nan nan nan nan nan 31 32 31 28 24 25 nan 24 20 25 27 27 28 27 20 21 20 nan nan nan nan nan nan nan nan nan nan nan nan nan nan nan
nan nan nan nan nan nan nan nan nan nan nan nan 28 29 29 21 18 22 nan nan 27 20 20 25 26 19 15 12 nan nan nan nan nan nan nan nan nan nan nan nan nan nan nan nan
nan nan nan nan nan nan nan nan nan nan nan nan 24 26 23 16 nan nan nan nan 15 14 21 20 22 18 16 15 nan nan nan nan nan nan nan nan nan nan nan nan nan nan nan nan
nan nan nan nan nan nan nan nan nan nan nan 25 18 20 14 nan nan nan nan nan 13 14 20 19 14 15 16 16 nan nan nan nan nan nan nan nan nan nan nan nan nan nan nan nan
nan nan nan nan nan nan nan nan nan nan nan 22 17 20 nan nan nan 13 12 nan 15 16 16 15 18 16 12 13 12 nan nan nan nan nan nan nan nan nan nan nan nan nan nan nan
nan nan nan nan nan nan nan nan nan 31 25 18 13 18 20 18 12 12 12 11 nan nan 15 16 15 16 14 16 12 14 18 nan nan nan nan nan nan nan nan nan nan nan nan nan
nan nan nan nan nan nan nan nan nan 27 22 16 21 24 nan 8 11 16 11 12 16 15 16 15 14 16 16 16 16 17 nan nan nan nan nan nan nan nan nan nan nan nan nan nan
Wind_Direction
189 nan nan nan nan nan 199 nan nan nan nan nan nan nan nan nan 24 357 nan nan nan nan nan nan nan nan nan nan nan nan nan nan nan nan 231 224 211 218 230 239 267 258 262 286
nan nan nan nan nan nan nan nan nan nan nan 308 nan 92 nan 5 24 nan nan nan nan nan nan nan nan nan nan nan nan nan nan nan nan nan 235 253 252 248 230 238 245 255 271 286
nan nan 299 nan 8 302 nan nan nan nan nan 327 nan nan nan nan 352 6 nan nan nan nan nan nan nan nan nan nan nan nan nan nan nan nan 254 nan 238 239 257 249 244 248 255 258
nan 79 18 nan 5 nan nan nan 339 nan nan nan nan nan nan nan 7 4 351 4 335 351 nan nan nan 296 307 nan nan nan nan nan nan 261 235 nan 263 262 257 253 249 243 238 248
110 25 nan 6 15 351 356 286 nan 318 nan nan nan nan nan nan nan nan 332 332 321 316 325 281 282 279 262 250 266 nan nan nan nan nan 272 nan nan 260 257 256 258 241 230 227
49 318 351 358 353 330 301 302 nan nan nan nan nan nan 151 nan nan nan nan 327 330 322 312 262 263 261 261 256 251 nan nan nan nan 262 nan nan 283 276 260 261 260 233 228 239
304 16 354 326 338 322 328 313 nan nan nan nan nan 292 343 nan nan nan nan 318 316 310 293 263 243 254 252 264 nan nan nan nan nan nan nan nan 271 266 261 263 253 215 240 245
229 183 327 318 345 342 339 337 nan nan nan nan 297 nan nan nan 236 256 285 291 290 294 275 249 244 229 235 253 314 316 294 270 nan nan 266 270 280 279 257 nan 235 237 240 236
347 51 329 340 338 333 nan 333 nan nan nan nan nan nan nan 276 275 277 274 294 288 281 281 266 261 240 220 250 295 278 271 263 280 273 271 276 279 268 nan nan nan 238 268 280
356 1 318 326 nan nan nan nan nan nan nan nan nan nan nan 251 278 280 301 302 303 308 294 292 287 278 248 223 272 280 272 273 273 269 266 265 273 267 nan nan nan 288 295 303
330 330 346 nan nan nan nan nan nan nan nan nan nan nan nan 312 301 306 299 305 306 303 300 298 302 303 283 272 300 296 289 278 281 284 291 271 nan 283 nan 297 296 304 306 nan
nan nan nan nan nan nan nan nan nan nan nan nan nan nan 288 286 290 308 302 294 300 297 300 304 298 287 275 283 288 292 289 293 287 289 293 nan nan 301 304 309 306 nan 293 nan
nan nan nan nan nan nan nan nan nan nan nan nan nan nan nan 276 267 285 299 295 295 295 296 295 293 286 283 289 294 296 291 287 285 293 284 288 299 294 298 302 nan nan nan nan
nan nan nan nan nan nan nan nan nan nan nan nan nan nan nan nan 273 274 273 277 280 287 292 288 285 287 290 288 286 289 289 285 294 295 297 304 304 299 nan nan nan nan nan nan
nan nan nan nan nan nan nan nan nan nan nan nan nan nan nan nan 295 289 274 273 286 287 289 290 291 292 289 283 283 286 282 287 291 292 295 304 nan nan nan nan nan nan nan nan
nan nan nan nan nan nan nan nan nan nan nan nan nan nan nan 289 281 295 291 282 278 288 285 284 286 291 290 281 280 282 281 283 nan nan nan nan nan nan nan nan nan nan nan nan
nan nan nan nan nan nan nan nan nan nan nan nan nan nan 306 300 309 294 292 294 290 271 281 286 283 283 279 284 282 286 296 nan nan nan nan nan nan nan nan nan nan nan nan nan
nan nan nan nan nan nan nan nan nan nan nan 300 287 301 314 286 288 290 287 276 269 270 277 289 282 277 276 277 275 286 nan nan nan nan nan nan nan nan nan nan nan nan nan nan
nan nan nan nan nan nan nan nan nan nan nan 309 293 280 302 298 278 264 275 287 297 270 277 281 283 284 286 276 267 274 nan nan nan nan nan nan nan nan nan nan nan nan nan nan
nan nan nan nan nan nan nan nan nan nan nan nan 300 295 298 293 281 295 nan 290 296 274 282 289 295 291 300 261 268 nan nan nan nan nan nan nan nan nan nan nan nan nan nan nan
nan nan nan nan nan nan nan nan nan nan nan nan 302 305 305 296 297 303 nan nan 284 271 280 283 296 306 312 313 nan nan nan nan nan nan nan nan nan nan nan nan nan nan nan nan
nan nan nan nan nan nan nan nan nan nan nan nan 293 306 313 301 nan nan nan nan 274 269 276 289 293 282 279 288 nan nan nan nan nan nan nan nan nan nan nan nan nan nan nan nan
nan nan nan nan nan nan nan nan nan nan nan 286 291 302 297 nan nan nan nan nan 274 281 275 281 289 286 277 278 nan nan nan nan nan nan nan nan nan nan nan nan nan nan nan nan
nan nan nan nan nan nan nan nan nan nan nan 288 297 270 nan nan nan 225 237 nan 272 276 277 267 288 287 288 289 295 nan nan nan nan nan nan nan nan nan nan nan nan nan nan nan
nan nan nan nan nan nan nan nan nan 299 293 281 268 283 284 201 185 237 242 260 nan nan 280 283 296 297 305 295 295 281 286 nan nan nan nan nan nan nan nan nan nan nan nan nan
nan nan nan nan nan nan nan nan nan 300 289 278 274 261 nan 181 193 247 236 260 279 287 286 284 290 290 290 292 285 283 nan nan nan nan nan nan nan nan nan nan nan nan nan nan